Location: Sedan
(39.2354°N, 78.5718°W)
Time: 14:20:49
(UTC+00:00)

Envisat - Pass Details

Date: 06 December 2021
Orbit: 764 x 766 km, 98.2° (Epoch: 19 January)

Event Time Altitude Azimuth Distance (km) Brightness Sun altitude
Rises 22:12:42 0° 193° (SSW) 3,217 6.8 -4.6°
Reaches altitude 10° 22:15:16 10° 205° (SSW) 2,296 6.3 -5.0°
Maximum altitude 22:19:38 29° 264° (W) 1,383 5.3 -5.8°
Drops below altitude 10° 22:24:01 10° 324° (NW) 2,310 5.7 -6.5°
Sets 22:26:38 0° 336° (NNW) 3,240 6.3 -7.0°
